Weather History for EGTE - January, 2013

Change the Weather History Date:

Friday, January 18, 2013

  Actual Average Record
Temperature  
Mean Temperature 37 °F -  
Max Temperature 41 °F 47 °F 59 °F (2007)
Min Temperature 33 °F 36 °F 30 °F (2001)
Degree Days  
Heating Degree Days 28    
Moisture  
Dew Point 34 °F    
Average Humidity 93    
Maximum Humidity 100    
Minimum Humidity 61    
Precipitation  
Precipitation 0.51 in - - ()
Sea Level Pressure  
Sea Level Pressure 29.42 in    
Wind  
Wind Speed 15 mph ()    
Max Wind Speed 25 mph    
Max Gust Speed 33 mph    
Visibility 3.5 miles    
Events Rain , Snow    
Averages and records for this station are not official NWS values.
T = Trace of Precipitation, MM = Missing Value Source: Averaged Metar Reports

Daily Weather History Graph

Daily Weather History Graph

Search for Another Location

Airport or City:

Trip Planner

Search our weather history database for the weather conditions in past years. The results will help you decide how hot, cold, wet, or windy it might be!

Date:

Astronomy

Jan. 18, 2013 Rise Set
Actual Time 8:06 AM GMT 4:42 PM GMT
Civil Twilight 7:29 AM GMT 5:19 PM GMT
Nautical Twilight 6:48 AM GMT 6:00 PM GMT
Astronomical Twilight 6:09 AM GMT 6:39 PM GMT
Moon 10:45 AM GMT (1/18) 12:07 AM GMT (1/18)
Length of Visible Light 9h 50m
Length of Day
8h 35m
Waxing Crescent, 45% of the Moon is Illuminated
Jan 18
Waxing Crescent
Jan 18
First Quarter
Jan 27
Full
Feb 3
Last Quarter
Feb 10
New

Hourly Weather History & Observations

Time (GMT) Temp. Windchill Dew Point Humidity Pressure Visibility Wind Dir Wind Speed Gust Speed Precip Events Conditions
12:20 AM 41.0 °F 31.1 °F 30.2 °F 65% 29.71 in 6.2 mi SSE 23.0 mph - N/A   Scattered Clouds
12:50 AM 41.0 °F 30.7 °F 28.4 °F 61% 29.71 in 6.2 mi SSE 25.3 mph - N/A Rain Light Rain
1:20 AM 39.2 °F 29.3 °F 32.0 °F 75% 29.71 in 6.2 mi SSE 20.7 mph - N/A Rain Light Rain
1:50 AM 39.2 °F 29.0 °F 30.2 °F 70% 29.68 in 6.2 mi SSE 21.9 mph 33.4 mph N/A Rain Light Rain
2:50 AM 35 °F - 34 °F 95%  in - South 13.8 mph - -  
5:50 AM 35 °F - 34 °F 92%  in - SSE 18.4 mph - -  
6:20 AM 35.6 °F 24.2 °F 33.8 °F 93% 29.56 in 4.3 mi SSE 21.9 mph - N/A Rain Rain
6:50 AM 35.6 °F 24.5 °F 33.8 °F 93% 29.56 in 4.3 mi SSE 20.7 mph - N/A Rain Rain
7:20 AM 35.6 °F 24.8 °F 33.8 °F 93% 29.53 in 4.3 mi SE 19.6 mph 32.2 mph N/A Rain Rain
7:50 AM 33.8 °F 21.9 °F 33.8 °F 100% 29.53 in 1.9 mi SE 21.9 mph - N/A Snow Snow
8:20 AM 33.8 °F 22.8 °F 32.0 °F 93% 29.53 in 1.9 mi SE 18.4 mph - N/A Snow Snow
8:50 AM 34 °F - 34 °F 100%  in - SE 15.0 mph - -  
8:50 AM 33.8 °F 23.2 °F 32.0 °F 93% 29.50 in 1.9 mi SE 17.3 mph - N/A Rain Rain
9:20 AM 33.8 °F 22.5 °F 33.8 °F 100% 29.50 in 2.2 mi SE 19.6 mph - N/A Rain , Snow Light Rain
9:50 AM 33.8 °F 23.2 °F 33.8 °F 100% 29.47 in 2.5 mi SE 17.3 mph - N/A Rain , Snow Light Rain
10:20 AM 35.6 °F 25.9 °F 33.8 °F 93% 29.47 in 3.1 mi SE 16.1 mph - N/A Rain , Snow Light Rain
10:50 AM 35.6 °F 25.9 °F 33.8 °F 93% 29.44 in 5.0 mi SE 16.1 mph - N/A Rain , Snow Light Rain
11:20 AM 35.6 °F 26.6 °F 35.6 °F 100% 29.44 in 4.3 mi SE 13.8 mph - N/A Rain Light Rain
11:50 AM 36 °F - 36 °F 100%  in - SE 11.5 mph - -  
11:50 AM 35.6 °F 27.1 °F 35.6 °F 100% 29.42 in 5.0 mi SE 12.7 mph - N/A Rain Light Rain
12:20 PM 35.6 °F 26.2 °F 35.6 °F 100% 29.42 in 3.1 mi ESE 15.0 mph - N/A Rain Rain
12:50 PM 35.6 °F 26.6 °F 35.6 °F 100% 29.39 in 4.3 mi SE 13.8 mph - N/A Rain Light Rain
1:20 PM 35.6 °F 26.2 °F 35.6 °F 100% 29.36 in 3.7 mi ESE 15.0 mph - N/A Rain Light Rain
1:50 PM 37.4 °F 29.3 °F 35.6 °F 93% 29.36 in 3.7 mi ESE 12.7 mph - N/A Rain Light Rain Showers
2:20 PM 37.4 °F 28.9 °F 35.6 °F 93% 29.36 in 2.5 mi ESE 13.8 mph - N/A Rain Light Rain Showers
2:50 PM 36 °F - 36 °F 100%  in - ESE 11.5 mph - -  
2:50 PM 37.4 °F 29.8 °F 35.6 °F 93% 29.33 in 3.1 mi ESE 11.5 mph - N/A Rain Light Rain Showers
3:20 PM 37.4 °F 29.8 °F 35.6 °F 93% 29.33 in 3.7 mi ESE 11.5 mph - N/A Rain Light Rain Showers
3:50 PM 37.4 °F 29.8 °F 35.6 °F 93% 29.33 in 3.1 mi ESE 11.5 mph - N/A Rain Light Rain Showers
4:20 PM 37.4 °F 30.3 °F 35.6 °F 93% 29.33 in 3.1 mi ESE 10.4 mph - N/A   Light Drizzle
4:50 PM 37.4 °F 29.3 °F 35.6 °F 93% 29.33 in 2.5 mi ESE 12.7 mph - N/A   Light Drizzle
5:20 PM 37.4 °F 28.5 °F 35.6 °F 93% 29.33 in 2.5 mi ESE 15.0 mph - N/A   Light Drizzle
5:50 PM 37 °F - 37 °F 99%  in - ESE 10.4 mph - -  
5:50 PM 37.4 °F 28.9 °F 35.6 °F 93% 29.33 in 2.5 mi ESE 13.8 mph - N/A   Light Drizzle
6:20 PM 37.4 °F 29.8 °F 35.6 °F 93% 29.33 in 3.1 mi East 11.5 mph - N/A   Mostly Cloudy
6:50 PM 37.4 °F 30.8 °F 35.6 °F 93% 29.33 in 3.7 mi East 9.2 mph - N/A   Mostly Cloudy
7:20 PM 37.4 °F 30.3 °F 35.6 °F 93% 29.33 in 3.7 mi East 10.4 mph - N/A   Mostly Cloudy
7:50 PM 35.6 °F 28.0 °F 33.8 °F 93% 29.33 in 3.7 mi East 10.4 mph - N/A Rain Light Rain
8:20 PM 35.6 °F 29.2 °F 33.8 °F 93% 29.33 in 3.7 mi East 8.1 mph - N/A Rain Light Rain
8:50 PM 35 °F - 35 °F 98%  in - East 8.1 mph - -  
8:50 PM 35.6 °F 29.2 °F 33.8 °F 93% 29.33 in 2.5 mi East 8.1 mph - N/A Rain , Snow Light Rain
9:20 PM 33.8 °F 27.0 °F 33.8 °F 100% 29.33 in 2.5 mi East 8.1 mph - N/A Rain , Snow Light Rain
9:50 PM 33.8 °F 27.7 °F 33.8 °F 100% 29.33 in 2.5 mi ENE 6.9 mph - N/A Rain Light Rain
10:20 PM 33.8 °F 27.0 °F 33.8 °F 100% 29.33 in 2.5 mi ENE 8.1 mph - N/A Rain Light Rain
10:50 PM 33.8 °F 27.7 °F 33.8 °F 100% 29.33 in 3.1 mi ENE 6.9 mph - N/A Rain Light Rain
11:20 PM 33.8 °F 27.7 °F 33.8 °F 100% 29.33 in 3.7 mi ENE 6.9 mph - N/A   Mostly Cloudy
11:50 PM 35 °F - 34 °F 93%  in - ENE 6.9 mph - -  
11:50 PM 33.8 °F 27.7 °F 32.0 °F 93% 29.33 in 3.7 mi NE 6.9 mph - N/A   Mostly Cloudy